Location: Unspecified
(0.0000°N, 0.0000°E)
Time: 11:30:28
(UTC+01:00)

Iridium 39 - Visible Passes

Search period start: 23 January 2017 00:00
Search period end: 02 February 2017 00:00
Orbit: 723 x 753 km, 86.4° (Epoch: 22 January)

Date Brightness Start Highest point End Pass type
(mag) Time Alt. Az. Time Alt. Az. Time Alt. Az.
28 Jan 8.6 21:44:49 10° S 21:45:04 11° S 21:45:04 11° S visible
29 Jan 8.2 21:00:14 10° SSE 21:00:32 11° SSE 21:00:32 11° SSE visible
30 Jan 8.4 21:54:46 10° SSW 21:55:44 15° SSW 21:55:44 15° SSW visible
31 Jan 7.5 21:09:23 10° S 21:11:18 23° SSE 21:11:18 23° SSE visible
01 Feb 7.7 20:25:40 10° SE 20:26:55 15° SE 20:26:55 15° SE visible
01 Feb 8.6 22:05:17 10° SW 22:06:36 15° SW 22:06:36 15° SW visible
